This is the latest recevied weather packets stored in our database for station/object OK2ZAW-23. If no packets are shown the sender has not sent any weather packets the latest 10 day(s).
| Time | Temp. | Humidity | Pressure | Rain* | Wind** | Luminosity | Snow |
|---|---|---|---|---|---|---|---|
| 1777774809 | 5° C | 75% | 1015.9 hPa | - | - | 335 W/m² | - |
| 1777774496 | 5.56° C | 76% | 1015.9 hPa | - | - | 335 W/m² | - |
| 1777773870 | 5.56° C | 77% | 1016.1 hPa | - | - | 335 W/m² | - |
| 1777773245 | 5.56° C | 74% | 1016 hPa | - | - | 335 W/m² | - |
| 1777772618 | 5.56° C | 75% | 1016.2 hPa | - | - | 335 W/m² | - |
| 1777771679 | 5.56° C | 72% | 1016 hPa | - | - | 335 W/m² | - |
| 1777771054 | 6.11° C | 75% | 1016 hPa | - | - | 335 W/m² | - |
| 1777769802 | 6.11° C | 74% | 1016.2 hPa | - | - | 335 W/m² | - |
| 1777769175 | 6.11° C | 67% | 1016.2 hPa | - | - | 335 W/m² | - |
| 1777768863 | 6.67° C | 67% | 1016.3 hPa | - | - | 335 W/m² | - |
| 1777768550 | 6.67° C | 67% | 1016.3 hPa | - | - | 335 W/m² | - |
| 1777768236 | 6.67° C | 67% | 1016.3 hPa | - | - | 335 W/m² | - |
| 1777766985 | 7.22° C | 66% | 1016.5 hPa | - | - | 335 W/m² | - |
| 1777766671 | 7.22° C | 66% | 1016.5 hPa | - | - | 335 W/m² | - |
| 1777766358 | 7.22° C | 66% | 1016.5 hPa | - | - | 335 W/m² | - |
| 1777766046 | 7.22° C | 67% | 1016.6 hPa | - | - | 335 W/m² | - |
| 1777765732 | 7.22° C | 71% | 1016.6 hPa | - | - | 335 W/m² | - |
| 1777765106 | 7.78° C | 62% | 1016.6 hPa | - | - | 335 W/m² | - |
| 1777764793 | 7.78° C | 62% | 1016.6 hPa | - | - | 335 W/m² | - |
| 1777764481 | 7.78° C | 65% | 1016.7 hPa | - | - | 335 W/m² | - |
| 1777763854 | 7.78° C | 60% | 1016.7 hPa | - | - | 335 W/m² | - |
| 1777762914 | 8.33° C | 55% | 1016.7 hPa | - | - | 335 W/m² | - |
| 1777762601 | 8.33° C | 55% | 1016.7 hPa | - | - | 335 W/m² | - |
| 1777761348 | 8.89° C | 53% | 1016.9 hPa | - | - | 335 W/m² | - |
| 1777761035 | 8.89° C | 53% | 1017 hPa | - | - | 335 W/m² | - |
* Rain since midnight (hover to see other rain measurements)
** Current wind speed in m/s (hover to see current wind gust speed)